[[{"header":{"parameterUnit":"m.s-1","parameterCategory":1,"la1":30.2991,"la2":30.254,"lo1":-89.0895,"lo2":-89.0444,"dy":0.0017,"dx":0.0017,"nx":28,"ny":28,"refTime":"2026-02-14T03:00:00:Z","depth":0,"parameterNumber":2,"parameterNumberName":"U-component_of_WINDS"},"data":[0,0,0,0,0,0,0,0,0,0,0,0,0,0,0,0,0,0,0,0,0,0,0,0,0,0,0,0,0,0,0,0,0,0,0,0,0,0,0,0,0,0,0,0,0,0,0,0,0,0,0,0,0,0,0,0,0,0,-0.456,-0.456,0,-0.457,-0.457,-0.457,-0.4549,-0.4548,-0.4548,-0.4547,-0.4561,-0.4562,-0.4563,0,0,0,0,0,0,0,0,0,0,0,0,0,-0.4525,-0.4526,-0.456,-0.456,-0.456,-0.457,-0.457,-0.457,-0.4549,-0.4548,-0.4547,-0.4547,-0.4561,-0.4562,-0.4563,0,0,0,0,0,0,0,0,0,0,0,0,0,-0.4539,-0.4526,-0.456,-0.455,-0.455,-0.457,-0.457,-0.457,-0.4549,-0.4548,-0.4547,-0.4546,-0.456,-0.4562,-0.4563,-0.4594,0,0,-0.4568,-0.4569,0,0,0,0,0,0,0,0,-0.4538,-0.454,-0.4552,-0.4551,-0.455,-0.4557,-0.4563,-0.4578,-0.455,-0.455,-0.4547,-0.4546,-0.4561,-0.4562,-0.4567,-0.4595,-0.4595,-0.4568,-0.4569,-0.457,-0.457,0,0,0,0,0,0,0,-0.4537,-0.4539,-0.4564,-0.4552,-0.4551,-0.4547,-0.4548,-0.4566,-0.4561,-0.4549,-0.4548,-0.4549,-0.456,-0.4565,-0.4567,-0.4596,-0.4568,-0.457,-0.4571,-0.4571,-0.4651,-0.4652,0,0,0,0,0,0,-0.4537,-0.4539,-0.4563,-0.4564,-0.4541,-0.4549,-0.4549,-0.4556,-0.4561,-0.456,-0.455,-0.4548,-0.4563,-0.4565,-0.4567,-0.4605,-0.457,-0.4571,-0.4572,-0.465,-0.4651,-0.4652,0,0,0,0,0,0,-0.4536,-0.4539,-0.4563,-0.4551,-0.4554,-0.455,-0.4558,-0.4557,-0.4562,-0.4561,-0.4561,-0.4556,-0.4562,-0.4565,-0.4588,-0.4605,-0.4572,-0.4574,-0.4648,-0.465,-0.4652,-0.4679,0,0,0,0,0,0,-0.4535,-0.4539,-0.455,-0.4551,-0.4554,-0.4582,-0.4559,-0.4558,-0.4564,-0.4561,-0.4566,-0.4566,-0.4562,-0.4585,-0.4589,-0.4606,-0.4575,-0.4647,-0.4649,-0.4651,-0.4676,-0.4681,-0.4685,0,0,0,0,0,-0.4534,-0.4557,-0.455,-0.4553,-0.4567,-0.4583,-0.4585,-0.4578,-0.4565,-0.4577,-0.4577,-0.4566,-0.4602,-0.4588,-0.4592,-0.461,-0.4646,-0.4649,-0.4651,-0.4674,-0.468,-0.4685,0,0,0,0,0,0,-0.4559,-0.4557,-0.455,-0.4574,-0.4579,-0.4579,-0.4594,-0.4585,-0.4594,-0.4592,-0.4584,-0.4585,-0.461,-0.4612,-0.4596,-0.464,-0.4622,-0.4626,-0.4638,-0.4644,-0.4648,-0.4648,-0.4576,0,0,0,0,0,-0.4567,-0.4579,-0.4577,-0.4599,-0.4602,-0.4597,-0.4604,-0.4598,-0.4603,-0.4606,-0.4607,-0.4614,-0.4626,-0.4635,-0.4647,-0.4676,-0.4678,-0.4691,-0.4695,-0.4699,-0.4703,-0.472,-0.4726,-0.4661,-0.4661,-0.4661,0,0,-0.4584,-0.4585,-0.4593,-0.4604,-0.4607,-0.4621,-0.4599,-0.4614,-0.4625,-0.4608,-0.463,-0.4631,-0.4638,-0.4664,-0.4676,-0.4667,-0.4721,-0.4702,-0.4705,-0.4707,-0.4723,-0.4729,-0.4735,-0.4663,-0.4663,-0.4662,0,0,-0.4623,-0.4624,-0.4643,-0.4646,-0.4651,-0.4648,-0.4652,-0.4654,-0.4654,-0.4675,-0.4664,-0.4677,-0.4698,-0.4704,-0.471,-0.4751,-0.4743,-0.4755,-0.478,-0.4796,-0.4802,-0.4806,-0.4822,-0.4828,-0.4759,-0.4759,-0.4759,0,-0.4645,-0.4663,-0.4654,-0.467,-0.4676,-0.466,-0.468,-0.4684,-0.4693,-0.4698,-0.4687,-0.4715,-0.4718,-0.4746,-0.4756,-0.4761,-0.4767,-0.4755,-0.4801,-0.4806,-0.481,-0.4825,-0.4831,-0.476,-0.476,-0.476,-0.476,0,-0.469,-0.4704,-0.4718,-0.4726,-0.4733,-0.4751,-0.4746,-0.4755,-0.4748,-0.4747,-0.477,-0.4773,-0.4786,-0.4792,-0.4786,-0.482,-0.4814,-0.4802,-0.4784,-0.4818,-0.4832,-0.4838,-0.4763,-0.4762,-0.4762,-0.4761,0,0,-0.4746,-0.4748,-0.4754,-0.4757,-0.4761,-0.4772,-0.479,-0.4801,-0.4809,-0.4816,-0.4832,-0.4851,-0.484,-0.4847,-0.4842,-0.4856,-0.4891,-0.4843,-0.4843,-0.4853,-0.493,-0.4939,-0.4946,-0.4884,-0.4885,-0.4886,-0.493,0,-0.4785,-0.4814,-0.4807,-0.4836,-0.485,-0.4835,-0.4851,-0.4856,-0.4855,-0.4867,-0.4866,-0.4881,-0.4865,-0.4869,-0.4883,-0.4883,-0.4906,-0.488,-0.4901,-0.4901,-0.4901,-0.4953,-0.4963,-0.5004,-0.4935,-0.4936,-0.4937,0,-0.4835,-0.4843,-0.4874,-0.4876,-0.4881,-0.4895,-0.4906,-0.4917,-0.4922,-0.4921,-0.4928,-0.4921,-0.494,-0.492,-0.4947,-0.493,-0.4938,-0.494,-0.4941,-0.4944,-0.4922,-0.4959,-0.5017,-0.5024,-0.4945,-0.4944,-0.4944,0,-0.4874,-0.4892,-0.4913,-0.4917,-0.492,-0.493,-0.4932,-0.4937,-0.4944,-0.4954,-0.4959,-0.4971,-0.4977,-0.4987,-0.4984,-0.4969,-0.5012,-0.4992,-0.5013,-0.5013,-0.5024,-0.5024,-0.5085,-0.5027,-0.5027,-0.5027,-0.5026,0,-0.492,-0.494,-0.4931,-0.4944,-0.4966,-0.4958,-0.498,-0.4981,-0.4985,-0.4999,-0.4987,-0.5001,-0.4995,-0.5008,-0.5006,-0.503,-0.5032,-0.5033,-0.5032,-0.5035,-0.5035,-0.5041,-0.5039,-0.5028,-0.5028,-0.5028,-0.5027,0,-0.4968,-0.4962,-0.4985,-0.4985,-0.4986,-0.5003,-0.5004,-0.5017,-0.5015,-0.5033,-0.5037,-0.5035,-0.5051,-0.5047,-0.5065,-0.5063,-0.5093,-0.5089,-0.5091,-0.5091,-0.5113,-0.5111,-0.5181,-0.5191,-0.5125,-0.5126,-0.5126,0,-0.4998,-0.5013,-0.5015,-0.5023,-0.5026,-0.5039,-0.5046,-0.5038,-0.5047,-0.5055,-0.5067,-0.5082,-0.5093,-0.5119,-0.512,-0.5133,-0.513,-0.5153,-0.5132,-0.5134,-0.5132,-0.5132,-0.5134,-0.5158,-0.5159,-0.516,-0.516,0,-0.5053,-0.5049,-0.506,-0.507,-0.5078,-0.5086,-0.5093,-0.5101,-0.5093,-0.5104,-0.5119,-0.5128,-0.5145,-0.516,-0.5173,-0.5177,-0.5168,-0.5167,-0.5173,-0.5176,-0.5177,-0.5178,-0.5104,-0.5165,-0.5165,-0.5164,-0.5164,-0.5164,-0.5093,-0.5106,-0.511,-0.5122,-0.5126,-0.5133,-0.5146,-0.5145,-0.5157,-0.517,-0.5165,-0.5183,-0.519,-0.5205,-0.5211,-0.5226,-0.5217,-0.5225,-0.5228,-0.523,-0.5233,-0.5174,-0.5228,-0.5228,-0.5227,-0.5227,-0.5227,0,-0.5149,-0.515,-0.5161,-0.5171,-0.5181,-0.517,-0.5177,-0.5187,-0.5202,-0.5209,-0.522,-0.5238,-0.5252,-0.5254,-0.5269,-0.528,-0.5277,-0.5285,-0.5284,-0.5286,-0.524,-0.5234,-0.5287,-0.5287,-0.5287,-0.5287,-0.5287,-0.5287,-0.5178,-0.52,-0.5197,-0.5221,-0.5223,-0.5239,-0.5245,-0.5251,-0.5256,-0.5277,-0.5288,-0.5289,-0.5294,-0.5309,-0.5322,-0.5322,-0.5329,-0.5339,-0.5338,-0.5295,-0.5289,-0.5283,-0.5278,-0.534,-0.534,-0.5383,-0.5383,-0.5383]},{"header":{"parameterUnit":"m.s-1","parameterCategory":1,"la1":30.2991,"la2":30.254,"lo1":-89.0895,"lo2":-89.0444,"dy":0.0017,"dx":0.0017,"nx":28,"ny":28,"refTime":"2026-02-14T03:00:00:Z","depth":0,"parameterNumber":3,"parameterNumberName":"V-component_of_WINDS"},"data":[0,0,0,0,0,0,0,0,0,0,0,0,0,0,0,0,0,0,0,0,0,0,0,0,0,0,0,0,0,0,0,0,0,0,0,0,0,0,0,0,0,0,0,0,0,0,0,0,0,0,0,0,0,0,0,0,0,0,1.174,1.174,0,1.1758,1.1758,1.1758,1.1749,1.1749,1.1748,1.1748,1.1766,1.1766,1.1767,0,0,0,0,0,0,0,0,0,0,0,0,0,1.1698,1.1699,1.174,1.174,1.174,1.1758,1.1758,1.1758,1.1749,1.1749,1.1748,1.1748,1.1765,1.1766,1.1767,0,0,0,0,0,0,0,0,0,0,0,0,0,1.1716,1.1699,1.174,1.1738,1.1738,1.1758,1.1758,1.1758,1.175,1.1749,1.1748,1.1748,1.1765,1.1766,1.1768,1.179,0,0,1.1772,1.1772,0,0,0,0,0,0,0,0,1.1715,1.1717,1.1738,1.1738,1.1738,1.1751,1.1749,1.1769,1.175,1.1745,1.1748,1.1747,1.1761,1.1763,1.1768,1.179,1.1791,1.1772,1.1773,1.1773,1.1774,0,0,0,0,0,0,0,1.1714,1.1717,1.1747,1.1739,1.1739,1.1736,1.1738,1.1753,1.1757,1.1746,1.1745,1.1747,1.1761,1.1766,1.1768,1.1791,1.1772,1.1773,1.1774,1.1774,1.1833,1.1834,0,0,0,0,0,0,1.1712,1.1716,1.1746,1.1748,1.1725,1.1738,1.174,1.1747,1.1757,1.1757,1.1748,1.1747,1.1764,1.1766,1.1769,1.1795,1.1773,1.1774,1.1775,1.1832,1.1833,1.1834,0,0,0,0,0,0,1.1712,1.1715,1.1746,1.1731,1.1735,1.1739,1.1748,1.1748,1.1753,1.1758,1.1759,1.1753,1.1764,1.1767,1.1784,1.1796,1.1775,1.1776,1.1832,1.1833,1.1834,1.1848,0,0,0,0,0,0,1.171,1.1715,1.1724,1.1732,1.1736,1.1762,1.1749,1.1749,1.1756,1.1755,1.1763,1.1764,1.1764,1.1783,1.1786,1.1797,1.1777,1.1831,1.1832,1.1833,1.1847,1.185,1.1852,0,0,0,0,0,1.1709,1.1727,1.1724,1.1728,1.1747,1.1762,1.1765,1.1765,1.1757,1.1765,1.1768,1.1763,1.1794,1.1784,1.1788,1.18,1.183,1.1832,1.1833,1.1846,1.1849,1.1852,0,0,0,0,0,0,1.172,1.1728,1.1725,1.1746,1.1754,1.1761,1.1772,1.1768,1.1778,1.1777,1.1775,1.1777,1.1796,1.18,1.1789,1.1822,1.1811,1.1813,1.1819,1.1822,1.1825,1.1824,1.1778,0,0,0,0,0,1.1725,1.1737,1.1743,1.1762,1.1765,1.1768,1.1775,1.1774,1.1781,1.1785,1.1789,1.1796,1.1808,1.1815,1.1825,1.1847,1.1849,1.1857,1.186,1.1862,1.1864,1.1876,1.188,1.184,1.184,1.184,0,0,1.1735,1.1741,1.1749,1.1764,1.177,1.1782,1.1771,1.1784,1.1794,1.1787,1.1804,1.1807,1.1815,1.1835,1.1844,1.1839,1.1876,1.1864,1.1866,1.1867,1.1878,1.1882,1.1885,1.1841,1.1841,1.1841,0,0,1.1761,1.1766,1.1782,1.1788,1.1797,1.1798,1.1802,1.181,1.1812,1.1829,1.1824,1.1835,1.1854,1.186,1.1866,1.1893,1.1889,1.1896,1.1911,1.1922,1.1925,1.1928,1.1938,1.1942,1.1898,1.1899,1.1899,0,1.1773,1.1792,1.1791,1.1805,1.1811,1.1806,1.1821,1.1827,1.1839,1.1843,1.1837,1.1861,1.1866,1.1888,1.1894,1.1899,1.1903,1.1896,1.1925,1.1928,1.193,1.194,1.1944,1.1899,1.1899,1.1899,1.1899,0,1.1806,1.1819,1.183,1.1842,1.185,1.1865,1.1866,1.1874,1.1872,1.1874,1.1892,1.1897,1.1909,1.1914,1.1912,1.1935,1.1931,1.1925,1.1914,1.1935,1.1944,1.1948,1.1901,1.19,1.19,1.19,0,0,1.1839,1.185,1.1854,1.186,1.1869,1.1879,1.1893,1.1904,1.1911,1.1919,1.1931,1.1948,1.1942,1.1948,1.1947,1.1957,1.1978,1.1949,1.195,1.1955,1.2004,1.2009,1.2013,1.1975,1.1976,1.1977,1.2003,0,1.1866,1.1891,1.1891,1.1914,1.1926,1.1921,1.1933,1.194,1.1942,1.1952,1.1955,1.1966,1.1958,1.1961,1.1971,1.1974,1.1988,1.1972,1.1987,1.1987,1.1985,1.2018,1.2023,1.2048,1.2007,1.2007,1.2008,0,1.19,1.1909,1.1934,1.1941,1.1946,1.1958,1.1968,1.1978,1.1985,1.1986,1.1993,1.199,1.2005,1.1993,1.2013,1.2001,1.2007,1.2009,1.201,1.2012,1.1999,1.2021,1.2056,1.206,1.2013,1.2013,1.2012,0,1.1922,1.1941,1.1959,1.1963,1.1972,1.198,1.1984,1.199,1.1997,1.2006,1.2011,1.2021,1.2027,1.2035,1.2035,1.2026,1.2055,1.2043,1.2056,1.2056,1.2063,1.2062,1.21,1.2066,1.2065,1.2065,1.2065,0,1.1952,1.1968,1.1969,1.198,1.1997,1.1996,1.2013,1.2016,1.2021,1.2033,1.2028,1.2038,1.2037,1.2048,1.2048,1.2064,1.2067,1.2068,1.2068,1.2068,1.2068,1.2073,1.2071,1.2066,1.2066,1.2066,1.2066,0,1.1981,1.1982,1.2001,1.2007,1.2009,1.2021,1.2027,1.2037,1.2038,1.2052,1.2056,1.2058,1.207,1.207,1.2084,1.2084,1.2104,1.2102,1.2102,1.2102,1.2115,1.2114,1.2157,1.2162,1.2124,1.2125,1.2125,0,1.2,1.2012,1.2019,1.2027,1.2031,1.2043,1.205,1.2049,1.2056,1.2065,1.2074,1.2086,1.2095,1.2114,1.2117,1.2128,1.2126,1.214,1.2127,1.2128,1.2126,1.2126,1.2127,1.2143,1.2143,1.2143,1.2144,0,1.2034,1.2034,1.2044,1.2055,1.2063,1.2071,1.2079,1.2085,1.2085,1.2093,1.2106,1.2113,1.2127,1.2139,1.2149,1.2152,1.2148,1.2148,1.2151,1.2153,1.2152,1.2153,1.2109,1.2147,1.2147,1.2146,1.2146,1.2146,1.2059,1.2069,1.2076,1.2088,1.2093,1.21,1.211,1.2113,1.2123,1.2134,1.2133,1.2147,1.2153,1.2166,1.2171,1.2181,1.2177,1.2182,1.2183,1.2185,1.2186,1.215,1.2183,1.2183,1.2183,1.2183,1.2183,0,1.2093,1.2097,1.2108,1.2118,1.2127,1.2122,1.213,1.2138,1.2151,1.2157,1.2166,1.218,1.2191,1.2195,1.2206,1.2213,1.2212,1.2216,1.2216,1.2217,1.219,1.2186,1.2217,1.2217,1.2217,1.2217,1.2217,1.2217,1.2112,1.2129,1.213,1.2149,1.2153,1.2167,1.2172,1.2178,1.2183,1.2199,1.2209,1.2211,1.2216,1.2227,1.2237,1.2237,1.2242,1.2247,1.2247,1.2222,1.2219,1.2215,1.2212,1.2248,1.2248,1.2273,1.2274,1.2274]}]]